Showing default

IRIDIUM 121, 42812

Orbit data source: Space-Track

IRIDIUM 121, 42812 is a payload satellite owned by Iridium (US) in LEO that was launched on Sun, 25 Jun 2017 UTC via an FALCON 9 launch vehicle from the Air Force Western Test Range (AFWTR). Payloads include a variety of satellites, spacecraft, and rockets equipped with specific instruments for various scientific and technological missions. These include communications satellites like Starlink; space stations such as the ISS; scientific satellites like the Hubble; Earth observation satellites from companies like Planet Labs, Umbra, and HawkEye 360; GPS; miniature CubeSats for education and research; and military/defense satellites.

Loading next visibility...
IRIDIUM 121 details
Identifier
42812, 2017-039K
Orbit
LEO
Last TLE update15 hours ago
Origin
Flag of USIridium (US)
ManufacturerOATK SSG Gilbert
MissionOperational Commercial Communications
Bus & MotorELITEBUS, Unknown motor
Mass860 kg wet, 700 kg dry
Launch date (UTC)
2017-06-25 (8 years ago)
Launch vehicle
FALCON 9
Launch site
Air Force Western Test Range (AFWTR)
Object type
Payload
Rocket body
Debris
Shape & HBRTrap Box + 2 Pan, 9.4 m
Radar Cross Section14.423 m², Large (>1 m²)

Expand to show TLE details & history

TLE from 15 hours ago
0 IRIDIUM 121
1 42812U 17039K   24361.11285541  .00000172  00000-0  54532-4 0  9993
2 42812  86.3979 218.4868 0001916  90.4902 269.6514 14.34219187392703
Epoch: 2024-12-26T02:42Z
Definitive object data (Epoch: 2024-12-26T02:42:30.707Z)
Latitude0.00004°
Longitude82.76194°
Altitude780.722 km
Speed7.463 km/s
True Right ascension14h 33m 56s
True Declination0° 00' 00"
Sunlit
Object was in daylight at TLE epoch
Visualization TLE readout
Latitude50.69934°
Longitude86.88293°
Altitude784.787 km
Speed7.467 km/s
Apparent Right ascension09h 42m 09s
Apparent Declination24° 59' 17"
Sunlit
Object is in daylight
Visualization observer readout
Local Sidereal Time17:23:15
Azimuth304.925° NW
Elevation-1.476°
Doppler factor1
Orbital elements
Apogee altitude775.997 km
Perigee altitude773.256 km
Semi-major axis7,152.764 km
Eccentricity0.0001916
Inclination86.3979°
RAAN218.4868°
Arg. of periapsis90.4902°
True anomaly269.62944°
Mean anomaly269.6514°
Eccentric anomaly269.64042°
Mean motion3.58783 °/min
BSTAR0.000054532
Orbital period100.34 mins
Loading maneuver chart data...
Loading historical data...
Loading historical data...
Loading historical data...
Loading historical data...
Loading historical data...
Loading historical data...
Loading historical data...

IRIDIUM 121 Visibility forecast

Observer location: undefined°, undefined

Span
Click to sort rows by Start time (UTC) header in descending order
Start Az.
Max El. time (UTC)
Max El. Az.
Max El.
End time (UTC)
End Az.
9 mins2024-12-27 02:43:50.098Z2.182° NNE2024-12-27 02:47:50.098Z61.376° ENE43.89°2024-12-27 02:52:50.098Z172.58° S
5 mins2024-12-27 14:01:50.098Z105.547° ESE2024-12-27 14:03:50.098Z78.262° E16.884°2024-12-27 14:06:50.098Z41.273° NE
8 mins2024-12-27 15:40:50.098Z209.333° SW2024-12-27 15:43:50.098Z269.238° W37.316°2024-12-27 15:48:50.098Z350.868° N
|